Погода в Петрозаводске

Погода в Петрозаводске : погода сейчас, прогноз погоды и архив. Всё, что Вы хотите узнать о погоде в Петрозаводске!

Хотите узнать прогноз погоды в Петрозаводске? Тогда Вам сюда: Погода в Петрозаводске

Поиск расширенной информации на нашем сайте:

Другие новости

Новости СМИ2

Главная страница сайта

Новости сайта

03.07.2017

Напоминаем, что на нашем специализированном сайте Метеоцентр.Азия вы можете получить высокодетализированные автоматические прогнозы погоды по пунктам России, СНГ и мира в авиационном формате (включающие направление и скорость ветра, видимость, явления погоды, количество и форму облачности, нижнюю и верхнюю границу облачности).

Рекомендуем: консультация юриста бесплатно круглосуточно консультация юриста бесплатно круглосуточно онлайн

Погода в Петрозаводске - сегодня

Время (UTC), дата Ветер
(°,м/с) 
Видим.   Явления Облачность Т
(°С)
Тd
(°С)
f(%) Тe
(°С)
Pmin
(гПа)
dP
(гПа)
Po
(мм)
O2
(г/м3)
Тmin Tmax R s Состояние
почвы
21 20.10.17 270 (З) 20000 м    9/0 средняя 
[Ac trans]
-1.6 -2.5 94 -3  1022.8  0.2  756  307           
00 21.10.17 270 (З) 20000 м    9/0 средняя 
[Ac trans]
-2.7 -3.5 94 -4  1022.9  756  308           
03 21.10.17 270 (З) 20000 м    ясно 
-3.4 -4 96 -5  1022.8  0.1  756  309  -3.4         
06 21.10.17 270 (З) 20000 м    ясно 
-2.9 -4.2 91 -5  1022.8  756  309  -4         
09 21.10.17 280 (З) 20000 м    6/0 верхняя 
[Ci fib]
+0.1 -3.5 77 -2  1022.1  -0.6  756  305           
12 21.10.17 280 (З) 4{10}  20000 м    6/0 средняя, верхняя 
[Ac trans|Ci fib]
+1.5 -5 62 -1  1020.2  -1.7  755  303           
15 21.10.17 260 (З) 20000 м    6/0 средняя, верхняя 
[Ac trans|Ci fib]
-0.2 -4.7 72 -3  1018.9  -1.4  754  304           
18 21.10.17 290 (З) 20000 м    9/0 средняя 
[Ac trans]
-0.2 -4.3 74 -3  1017.8  -1.1  753  304    +1.5       
21 21.10.17 270 (З) 4000 м  слаб. снег  10/6 300 м средняя 
[Sc|As op]
-1.5 -2.2 95 -4  1016.9  -0.9  752  305           
00 22.10.17 270 (З) 20000 м  в посл. час снег  10/10 400 м 
[Sc]
-1.1 -1.7 96 -4  1015.7  -1.2  751  304           
03 22.10.17 280 (З) 4000 м  слаб. снег  10/8 210 м средняя 
[Frnb|As op]
-0.9 -1.3 97 -3  1014.9  -0.7  751  304  -1.7       
06 22.10.17 290 (З) 2400 м  снег  10/8 150 м средняя 
[Frnb|As op]
-0.7 -0.9 99 -3  1014.5  -0.5  750  303  -1.7    равномерный
сухой снег
100% 
09 22.10.17 330 (СЗ) 4500 м  слаб. ливневой снег  10/6 300 м кучево-дожд., средняя 
[Cb cap|Ac As]
+0 -0.9 94 -1  1014.7  0.3  751  303           
12 22.10.17 340 (С) 20000 м  {ливн. осадки, снег}  8/4 300 м кучево-дожд., средняя 
[Cb cap|Ac trans]
+0.4 -1.8 85 1015.2  0.5  751  302           
15 22.10.17 290 (З) 20000 м  {ливн. осадки}  10/6 300 м средняя 
[Sc|Ac und]
-0.7 -1.7 93 -2  1016.3  752  304         
18 22.10.17 290 (З) 20000 м  {ливн. осадки}  9/5 600 м средняя 
[Sc|Ac trans]
-1.9 -2.9 93 -3  1017.3  0.9  752  306    +1  0.2     
21 22.10.17 340 (С) 20000 м    4/1 600 м средняя 
[Sc|Ac trans]
-0.8 -2 92 -2  1018.7  1.4  753  305           
00 23.10.17 300 (СЗ) 20000 м    1/1 600 м 
[Sc]
-1.8 -2.5 95 -3  1019.9  1.1  754  306           
03 23.10.17 300 (СЗ) 20000 м  {ливн. осадки}  3/3 600 м 
[Sc]
-1.3 -1.7 97 -2  1021.2  1.3  755  306  -1.9    0.2     
06 23.10.17 330 (СЗ) 20000 м  в посл. час снег{ливн. осадки}  6/6 600 м кучево-дожд. 
[Cb cap]
-0.8 -1.3 96 -2  1022.8  1.6  756  306  -1.9    0.2  равномерный
сухой снег
100% 
09 23.10.17 040 (СВ) 20000 м    8/6 300 м кучево-дожд., средняя 
[Cb calv|Ac trans]
+1.4 -1.2 83 +1  1024.2  1.8  758  304           
12 23.10.17 320 (СЗ) 20000 м  {ливн. осадки}  9/6 300 м кучево-дожд., средняя 
[Cb calv|Ac trans]
+1.5 -0 90 +1  1025.6  1.3  759  304           
15 23.10.17 300 (СЗ) 20000 м    10/8 300 м кучево-дожд., средняя 
[Cb calv|Ac und]
+1 +0.5 96 +2  1027  1.3  760  305      0.0     
18 23.10.17 330 (СЗ) 20000 м    6/6 300 м кучево-дожд. 
[Cb calv]
+0.5 +0 96 +1  1028.3  1.3  761  306    +2.4  0.0     
21 23.10.17 310 (СЗ) 20000 м  {ливн. осадки}  10/10 570 м кучево-дожд. 
[Cb cap]
+0.3 +0 98 +1  1029.5  1.2  761  306           
Время (UTC), дата Ветер
(°,м/с) 
Видим.   Явления Облачность Т
(°С)
Тd
(°С)
f(%) Тe
(°С)
Pmin
(гПа)
dP
(гПа)
Po
(мм)
O2
(г/м3)
Тmin Tmax R s Состояние
почвы

Для получения пояснительной информации подведите курсор к названию столбца.

ПОГОДА в Петрозаводске - архив

Всё, что Вы хотите узнать о погоде в Петрозаводске - удобно и подробно!

Выберите нужную дату (начиная с 1 января 2015* года) и нажмите кнопку "Найти".
Будут отображены архивные сводки погоды по пункту Петрозаводск, начиная с указанной даты.


Отображать данные в формате CSV (для использования в таблицах Excel)


Внимание! Наш архив погоды предназначен исключительно для личного некоммерческого использования в познавательных целях. Если Вам необходимы официальные справки о состоянии погоды (для производственных, юридических, коммерческих и т.п. целей), обращайтесь в органы Росгидромета.

*Примечание: данная дата относится к архиву по метеостанциям СССР (Россия, СНГ, Балтия).
Архив по метеостанциям Зарубежной Европы и Азии (кроме Китая) хранится 10 дней, по другим регионам земного шара (Китай, Африка, Америка, Австралия, Океания) - 1 день.

Петрозаводск - район местоположения метеостанции


Название, широта, долгота, высота метеостанции:
Петрозаводск 61.8°ш. 34.3°д. 110 м над ур. моря [Российская Федерация]

Дополнительная информация

В oтличие oт бoльшинства пoгoдных сайтoв мы публикуем пoдрoбную метеoинфoрмацию в детальнoм прoфессиoнальнoм фoрмате.

Характеристики температуры и влажнoсти вoздуха измеряются на высoте 2 м в тени вдали oт зданий и деревьев.
Скoрoсть ветра измеряется на высoте 10 м (на урoвне рoста челoвека скoрoсть ветра ниже в 1.5-2 раза). Если метеoстанция нахoдится в гoрoде или в лесу, тo скoрoсть ветра занижена на 2-4 м/с пo сравнению с oткрытым местoм. Скoрoсть ветра над акватoриями крупных рек и oзёр, а также на вершинах хoлмoв на 2-5 м/с выше, чем в oбычных услoвиях.
Атмoсфернoе давление в разных тoчках местнoсти мoжет значительнo oтличаться oт давления на метеoстанции, в зависимoсти oт услoвий рельефа (при пoдъёме на 10 м давление пoнижается примернo на 1 мм рт.ст.).